Other Public Products
Issued by NWS Grand Forks, ND

Home | Current Version | Previous Version | Text Only | Print | Product List | Glossary Off
Versions: 1 2 3 4 5 6 7 8 9 10 11 12 13 14 15 16 17 18 19 20 21 22 23 24 25 26 27 28 29 30 31 32 33 34 35 36 37 38 39 40 41 42 43 44 45 46 47 48 49 50

000
FPUS83 KFGF 292131
OPUFGF
PRAIRIE TO PINES WEATHER ROUNDUP
NATIONAL WEATHER SERVICE EASTERN NORTH DAKOTA/GRAND FORKS ND
300 PM CST THU JAN 29 2015

 **SATELLITE DATA USED TO AUGMENT SKY COVER AT AUTOMATED STATIONS**
 *****  WEATHER ACROSS EASTERN NORTH DAKOTA  *****

CITY           SKY/WX    TMP DP  RH WIND       PRES   REMARKS
GRAND FORKS    MOSUNNY   14   4  64 N18       30.54R WCI  -3
GRAND FORKS AF MOSUNNY   14   3  62 N13       30.53S WCI   0
GRAND CITY NWS   N/A     12 N/A N/A N15         N/A  WCI  -4
BUXTON           N/A     15   4  61 NW16        N/A  WCI  -1
DEVILS LAKE    CLOUDY    14   7  73 NW12      30.49S WCI   0
FARGO          FLURRIES  18   8  65 NW20      30.51R WCI   2
WAHPETON ARPT  CLOUDY    19  10  68 N17       30.50R WCI   4
$$

 *****  WEATHER ACROSS CENTRAL AND WESTERN NORTH DAKOTA  *****

CITY           SKY/WX    TMP DP  RH WIND       PRES   REMARKS
JAMESTOWN      CLOUDY    19  11  70 NW15      30.48S WCI   5
BISMARCK       PTSUNNY   31  18  58 N7        30.46F WCI  24
MINOT          CLOUDY    19  11  70 N5        30.46F HAZE    WCI  12
MINOT AFB      CLOUDY    17  14  86 N3        30.47F
GARRISON         N/A     25  18  74 N6        30.43F WCI  18
WILLISTON      MOSUNNY   30  19  63 CALM      30.41F
DICKINSON      SUNNY     37  20  50 W3        30.37F
HETTINGER      SUNNY     40  15  36 NW7       30.40F
$$

 *****  OTHER OBSERVATIONS NORTHEAST NORTH DAKOTA  *****

CITY           SKY/WX    TMP DP  RH WIND       PRES   REMARKS
WALHALLA         N/A      9   1  72 N13       30.56R WCI  -7
LANGDON        NOT AVBL
CAVALIER       FAIR       9   1  72 N16       30.55S WCI  -9
GRAFTON        NOT AVBL
CANDO          CLOUDY    14   7  73 N7        30.50S WCI   4
FORT TOTTEN      N/A     14   6  71 NW7       29.95S WCI   4
ROLLA          MOCLDY     9   7  92 MISG      30.47S
RUGBY          FLURRIES  12   7  79 N6        30.49S WCI   3
 ***** THE ABOVE OBSERVATIONS ARE NON NWS ARE NOT QUALITY
        CONTROLLED AND MAY MIS-REPORT RAIN FOR SNOW...
$$

 *****  OTHER OBSERVATIONS SOUTHEAST NORTH DAKOTA *****

CITY           SKY/WX    TMP DP  RH WIND       PRES   REMARKS
COOPERSTOWN    NOT AVBL
VALLEY CITY    FLURRIES  16  14  93 N13       30.49R WCI   2
OAKES          FLURRIES  23  16  74 N14       30.49R WCI  11
GWINNER        CLOUDY    23  18  80 N14       30.50R WCI  11
BUFFALO        NOT AVBL
WYNDMERE         N/A     21  12  68 NW16        N/A  WCI   7
 ***** THE ABOVE OBSERVATIONS ARE NON NWS ARE NOT QUALITY
       CONTROLLED AND MAY MIS-REPORT RAIN FOR SNOW...
$$

  *****  WEATHER ACROSS NORTHERN MINNESOTA  *****

CITY           SKY/WX    TMP DP  RH WIND       PRES   REMARKS
FLAG ISLAND    MOSUNNY    7   0  72 NW16      30.42R WCI -11
WARROAD        SUNNY      9   0  66 NW14      30.45R WCI  -8
ROSEAU         PTSUNNY   10   3  72 NW10      30.46R WCI  -3
HALLOCK        CLOUDY     7   1  78 N18       30.54R WCI -12
THF RVR FALLS  PTSUNNY    9   1  72 NW15      30.48R WCI  -8
HALSTAD          N/A     14   3  61 N17         N/A  WCI  -2
FOSSTON        CLOUDY    10   5  79 NW12G18   30.46R HAZE    WCI  -4
BAUDETTE       PTSUNNY    8   0  69 NW16      30.39R WCI -10
WASKISH        CLOUDY    12   5  73 NW12      30.40R WCI  -2
CROOKSTON      MOSUNNY   10   3  72 N21       30.54R WCI  -9
$$
  *****  WEATHER ACROSS CENTRAL AND WEST MINNESOTA  *****

CITY           SKY/WX    TMP DP  RH WIND       PRES   REMARKS
BEMIDJI        SUNNY     13   5  71 NW17      30.39R WCI  -4
PARK RAPIDS    PTSUNNY   17   7  64 NW20G26   30.37R WCI   1
WADENA         MOSUNNY   16   7  67 NW20      30.39R WCI  -1
DETROIT LAKES  LGT SNOW  14  10  85 NW15G24   30.44R WCI  -1
MOORHEAD       MIX PCPN  18  10  73 N20       30.51R WCI   1
FERGUS FALLS   FLURRIES  16   7  67 N21       30.49R WCI  -2
ELBOW LAKE     FLURRIES  16  10  76 N18G25    30.44R WCI  -1
MORRIS MN      FLURRIES  18  10  73 NW21G29   30.44R WCI   1
STAPLES        SUNNY     18   7  62 N18G24    30.36S WCI   2
WHEATON        FLURRIES  18  10  73 NW16G23   30.50R WCI   3
$$
  *****  WEATHER ELSEWHERE ACROSS MINNESOTA  *****

CITY           SKY/WX    TMP DP  RH WIND       PRES   REMARKS
DULUTH         FLURRIES  17   7  64 NW14G23   30.24R WCI   3
INTRNTL FALLS  CLOUDY    11   2  67 NW16      30.34R WCI  -6
ELY            LGT SNOW  14   7  73 NW8G26    30.23R WCI   3
CLOQUET        CLOUDY    18   9  68 NW18      30.26R WCI   2
BRAINERD       CLOUDY    19   8  62 NW17      30.34R WCI   4
HIBBING        CLOUDY    13   3  64 NW22      30.27R WCI  -6
ALEXANDRIA     MOSUNNY   17   8  67 NW16G25   30.39R WCI   2
SAINT CLOUD    MOSUNNY   25  14  63 NW22      30.33R WCI  10
MINNEAPOLIS    PTSUNNY   27  15  61 NW24G32   30.31R WCI  12
$$

  *****  WEATHER ACROSS SOUTH DAKOTA  *****

CITY           SKY/WX    TMP DP  RH WIND       PRES   REMARKS
SIOUX FALLS    CLOUDY    30  21  69 NW21G30   30.43R WCI  17
BROOKINGS      NOT AVBL
WATERTOWN      CLOUDY    23  17  78 NW18G24   30.42R WCI   9
HURON          CLOUDY    28  20  71 N17       30.48R WCI  16
SISSETON         N/A     22  16  78 N23G29    30.46R WCI   6
ABERDEEN       CLOUDY    26  18  71 N15       30.49S WCI  14
MITCHELL       CLOUDY    33  22  63 NW17      30.48R WCI  22
PIERRE         SUNNY     39  21  48 NW13      30.45S
MOBRIDGE       SUNNY     36  21  54 N12       30.43F
RAPID CITY     SUNNY     46  12  25 NE3       30.41F
$$

  *****  SOME WEATHER IN NEARBY STATES *****

CITY           SKY/WX    TMP DP  RH WIND       PRES   REMARKS
GLASGOW MT     FOG       30  28  92 E12       30.33F VSB 1/4 WCI  20
GREAT FALLS MT FAIR      49  16  26 SW15      30.22F
CHEYENNE WY    MOSUNNY   42  23  46 S6        30.39F
SCOTTSBLUFF NE SUNNY     49  19  30 CALM      30.42F
OMAHA NE       CLOUDY    38  25  59 N18G29    30.42R
DES MOINES IA  CLOUDY    37  24  59 NW22G36   30.33R
DAVENPORT IA   CLOUDY    34  28  79 NW18      30.15R WCI  23
CHICAGO IL     CLOUDY    34  26  72 NW13G28   30.02R WCI  25
EAU CLAIRE WI  CLOUDY    29  19  66 NW21G29   30.18R WCI  16
LA CROSSE WI   CLOUDY    36  22  56 NW24G32   30.16R
$$

  *****  SOME NATIONAL WEATHER *****

CITY           SKY/WX    TMP DP  RH WIND       PRES   REMARKS
LA GUARDIA NY  CLOUDY    30  19  63 S10       30.16F WCI  21
RALEIGH NC     LGT RAIN  45  23  42 S6        30.14F
ATLANTA GA     CLOUDY    59  25  27 S12       30.12F
NEW ORLEANS LA MOSUNNY   77  54  44 W14       30.18F
OKLAHOMA CITY  PTSUNNY   51  28  41 N23G31    30.40S
ALBUQUERQUE NM CLOUDY    52  27  38 E24G31    30.38F
SALT LAKE CITY PTSUNNY   44  35  70 NW7       30.29F
LOS ANGELES CA PTSUNNY   73  44  35 CALM      30.00F
BOISE ID       CLOUDY    44  33  65 E3        30.38F
SEATTLE WA     FAIR      51  38  60 N8        30.33F
$$

*** WEATHER ACROSS MANITOBA...SASKATCHEWAN AND ONTARIO ***
                ***ONTARIO***

CITY           SKY/WX    TMP DP  RH WIND       PRES   REMARKS
GERALDTON      PTSUNNY    3  -4  72 NW14G22   30.10R WCI -15
THUNDER BAY    MOSUNNY   16   3  57 NW21      30.18R WCI  -2
SIOUX LOOKOUT  FLURRIES   5  -4  66 N9        30.29R WCI  -9
TORONTO        LGT SNOW  30  28  93 S3        29.71S VSB 3/4
BIG TROUT LK   FLURRIES  -8 -17  65 NW16G22   30.26R WCI -30
PICKLE LAKE    CRYSTALS  -2  -9  71 NW9G20    30.23R WCI -18
DRYDEN         FLURRIES   7   0  72 NW9       30.32R WCI  -7
KENORA         FLURRIES   3  -2  78 N13       30.38  WCI -14
$$
                *** MANITOBA***

CITY           SKY/WX    TMP DP  RH WIND       PRES   REMARKS
BRANDON        PTSUNNY    9   1  72 NE3       30.52S
DAUPHIN        SUNNY      1  -8  66 CALM      30.56F
ISLAND LAKE    MOSUNNY   -8 -17  65 W14       30.41  WCI -28
PILOT MOUND      N/A      5   0  78 N8          N/A  WCI  -8
THE PAS        PTSUNNY   -4 -13  65 W9        30.52F WCI -20
THOMPSON       SUNNY     -4 -17  54 W16G23    30.42F WCI -25
WINNIPEG       MOSUNNY    5  -4  66 NW13G18   30.56S WCI -12
LYNN LAKE      SUNNY     -9 -17  70 W13       30.36F WCI -30
CHURCHILL      CLOUDY   -13 -20  70 W16       30.22S WCI -37
GILLAM         MOCLDY    -6 -18  54 W10G17    30.29F WCI -23
$$
                ***SASKATCHEWAN***

CITY           SKY/WX    TMP DP  RH WIND       PRES   REMARKS
ESTEVAN        FLURRIES N/A N/A N/A S6          N/A
KINDERSLEY     MOSUNNY   21  16  79 E13       30.24F WCI   9
LLOYDMINSTER   PTSUNNY   14   7  73 S12       30.25F WCI   0
PRINCE ALBERT  FLURRIES   3  -2  78 S7        30.43F WCI  -9
REGINA         FLURRIES  14  10  85 SE10      30.41F WCI   1
YORKTON        CLOUDY     7   1  78 S5        30.47F WCI  -2


USA.gov is the U.S. government's official web portal to all federal, state and local government web resources and services.